Weather History for Gillette, WY

Change the Weather History Date:

Wednesday, February 13, 2013

  Actual Average Record
Temperature  
Mean Temperature 36 °F 27 °F  
Max Temperature 44 °F 37 °F 48 °F (2014)
Min Temperature 27 °F 16 °F 18 °F (2014)
Degree Days  
Heating Degree Days 29 38  
Month to date heating degree days 445 505  
Since 1 July heating degree days 4531 4860  
Cooling Degree Days 0 0  
Month to date cooling degree days 0 0  
Year to date cooling degree days 0 0  
Moisture  
Dew Point 25 °F    
Average Humidity 66    
Maximum Humidity 92    
Minimum Humidity 40    
Precipitation  
Precipitation 0.07 in 0.02 in 0.00 in (2014)
Month to date precipitation 0.14 0.20  
Year to date precipitation 0.55 0.59  
Sea Level Pressure  
Sea Level Pressure 29.91 in    
Wind  
Wind Speed 17 mph (WNW)    
Max Wind Speed 36 mph    
Max Gust Speed 63 mph    
Visibility 7 miles    
Events Fog , Snow    
T = Trace of Precipitation, MM = Missing Value Source: NWS Daily Summary

Daily Weather History Graph

Daily Weather History Graph

Search for Another Location

Airport:

Trip Planner

Search our weather history database for the weather conditions in past years. The results will help you decide how hot, cold, wet, or windy it might be!

Date:

Astronomy

Feb. 13, 2013 Rise Set
Actual Time 7:04 AM MST 5:28 PM MST
Civil Twilight 6:34 AM MST 5:58 PM MST
Nautical Twilight 6:00 AM MST 6:33 PM MST
Astronomical Twilight 5:26 AM MST 7:06 PM MST
Moon 8:24 AM MST (2/13) 9:46 PM MST (2/13)
Length of Visible Light 11h 24m
Length of Day
10h 24m
Waxing Crescent, 14% of the Moon is Illuminated
Feb 13
Waxing Crescent
Feb 17
First Quarter
Feb 25
Full
Mar 4
Last Quarter
Mar 11
New

Hourly Weather History & Observations

Time (MST) Temp. Windchill Dew Point Humidity Pressure Visibility Wind Dir Wind Speed Gust Speed Precip Events Conditions
12:53 AM 28.0 °F 15.7 °F 15.1 °F 58% 29.94 in 10.0 mi SW 17.3 mph - N/A   Clear
1:53 AM 28.0 °F 15.3 °F 15.1 °F 58% 29.91 in 10.0 mi SSW 18.4 mph - N/A   Clear
2:53 AM 28.0 °F 16.5 °F 15.1 °F 58% 29.89 in 10.0 mi SW 15.0 mph - N/A   Clear
3:53 AM 28.9 °F 17.3 °F 16.0 °F 58% 29.88 in 10.0 mi SW 16.1 mph - N/A   Clear
4:53 AM 30.0 °F 17.9 °F 16.0 °F 56% 29.88 in 10.0 mi SW 18.4 mph - N/A   Mostly Cloudy
5:53 AM 30.0 °F 19.5 °F 17.1 °F 59% 29.89 in 10.0 mi SW 13.8 mph - N/A   Overcast
6:53 AM 33.1 °F 23.4 °F 17.1 °F 52% 29.87 in 10.0 mi WSW 13.8 mph - N/A   Overcast
7:53 AM 34.0 °F 25.5 °F 18.0 °F 52% 29.88 in 10.0 mi West 11.5 mph - N/A   Mostly Cloudy
8:53 AM 39.0 °F 30.3 °F 19.0 °F 45% 29.86 in 10.0 mi West 16.1 mph - N/A   Scattered Clouds
9:53 AM 39.9 °F 31.4 °F 19.0 °F 43% 29.87 in 10.0 mi West 16.1 mph - N/A   Mostly Cloudy
10:53 AM 42.1 °F 34.5 °F 21.0 °F 43% 29.86 in 10.0 mi WNW 15.0 mph - N/A   Overcast
11:53 AM 44.1 °F 35.9 °F 21.9 °F 42% 29.84 in 10.0 mi NW 19.6 mph 25.3 mph N/A   Overcast
12:53 PM 39.9 °F 27.8 °F 26.1 °F 58% 29.88 in 10.0 mi NW 33.4 mph 40.3 mph N/A   Overcast
1:40 PM 37.4 °F 26.6 °F 30.2 °F 75% 29.82 in 7.0 mi NW 21.9 mph 39.1 mph 0.00 in Snow Light Snow
1:53 PM 39.9 °F 28.4 °F 30.0 °F 68% 29.88 in 9.0 mi NW 29.9 mph 35.7 mph 0.00 in   Overcast
2:06 PM 33.8 °F 21.9 °F 30.2 °F 87% 29.84 in 1.0 mi North 21.9 mph 34.5 mph 0.00 in Snow Light Snow
2:08 PM 32.0 °F 18.6 °F 30.2 °F 93% 29.84 in 0.8 mi North 25.3 mph 34.5 mph 0.00 in Snow Light Snow
2:22 PM 32.0 °F 20.8 °F 30.2 °F 93% 29.85 in 0.2 mi North 17.3 mph - 0.00 in Fog , Snow Snow
2:29 PM 32.0 °F 21.2 °F 32.0 °F 100% 29.86 in 0.2 mi NNW 16.1 mph - 0.02 in Fog , Snow Snow
2:53 PM 30.9 °F 18.7 °F 30.0 °F 96% 29.96 in 0.5 mi NNW 19.6 mph 29.9 mph 0.04 in Fog , Snow Snow
3:09 PM 32.0 °F 19.5 °F 30.2 °F 93% 29.88 in 0.8 mi NW 21.9 mph 26.5 mph 0.02 in Snow Light Snow
3:28 PM 32.0 °F 20.8 °F 30.2 °F 93% 29.89 in 0.8 mi NW 17.3 mph 24.2 mph 0.03 in Snow Light Snow
3:35 PM 32.0 °F 21.2 °F 30.2 °F 93% 29.89 in 0.8 mi NW 16.1 mph - 0.03 in Snow Light Snow
3:38 PM 32.0 °F 20.8 °F 30.2 °F 93% 29.89 in 1.0 mi NW 17.3 mph 24.2 mph 0.03 in Snow Light Snow
3:44 PM 32.0 °F 20.5 °F 30.2 °F 93% 29.89 in 2.0 mi NW 18.4 mph 25.3 mph 0.03 in Snow Light Snow
3:53 PM 32.0 °F 19.8 °F 28.9 °F 88% 29.97 in 4.0 mi NW 20.7 mph 25.3 mph 0.03 in Snow Light Snow
3:58 PM 30.2 °F 17.8 °F 30.2 °F 100% 29.89 in 1.8 mi WNW 19.6 mph - 0.00 in Snow Light Snow
4:07 PM 30.2 °F 18.1 °F 30.2 °F 100% 29.89 in 3.0 mi WNW 18.4 mph - 0.00 in Snow Light Snow
4:53 PM 30.9 °F 19.1 °F 28.0 °F 89% 29.97 in 10.0 mi WNW 18.4 mph - 0.00 in   Mostly Cloudy
5:53 PM 30.0 °F 21.1 °F 28.0 °F 92% 30.00 in 10.0 mi West 10.4 mph - N/A   Overcast
6:53 PM 30.0 °F 19.1 °F 28.0 °F 92% 30.00 in 10.0 mi WNW 15.0 mph - N/A   Mostly Cloudy
7:53 PM 30.0 °F 18.7 °F 28.0 °F 92% 30.02 in 5.0 mi WNW 16.1 mph - 0.00 in Snow Light Snow
8:53 PM 28.9 °F 18.2 °F 27.0 °F 92% 30.02 in 10.0 mi West 13.8 mph - 0.00 in   Overcast
9:53 PM 28.9 °F 19.2 °F 27.0 °F 92% 30.02 in 10.0 mi West 11.5 mph - N/A   Overcast
10:53 PM 28.0 °F 18.6 °F 26.1 °F 92% 30.02 in 10.0 mi West 10.4 mph - N/A   Overcast
11:44 PM 28.4 °F 19.1 °F 26.6 °F 93% 29.98 in 10.0 mi NW 10.4 mph - N/A   Overcast
11:53 PM 28.9 °F 20.4 °F 27.0 °F 92% 30.04 in 8.0 mi NW 9.2 mph - N/A   Overcast